This is the latest recevied weather packets stored in our database for station/object KC3ELT-10. If no packets are shown the sender has not sent any weather packets the latest 10 day(s).
| Time | Temp. | Humidity | Pressure | Rain* | Wind** | Luminosity | Snow |
|---|---|---|---|---|---|---|---|
| 1777620779 | 5.56° C | 85% | 1006.7 hPa | 0 mm | 2.68 m/s, 296° | - | - |
| 1777620478 | 5.56° C | 85% | 1006.7 hPa | 0 mm | 0.89 m/s, 343° | - | - |
| 1777620179 | 5.56° C | 85% | 1006.7 hPa | 0 mm | 1.34 m/s, 300° | - | - |
| 1777619878 | 5.56° C | 85% | 1006.7 hPa | 0 mm | 1.34 m/s, 321° | - | - |
| 1777619579 | 5.56° C | 84% | 1006.7 hPa | 0 mm | 0.45 m/s, 314° | - | - |
| 1777619279 | 5.56° C | 84% | 1006.7 hPa | 0 mm | 0.45 m/s, 324° | - | - |
| 1777618979 | 5.56° C | 84% | 1006.7 hPa | 0 mm | 0.45 m/s, 340° | - | - |
| 1777618678 | 5.56° C | 84% | 1006.7 hPa | 0 mm | 0.89 m/s, 336° | - | - |
| 1777618378 | 5.56° C | 83% | 1006.7 hPa | 0 mm | 0.89 m/s, 326° | - | - |
| 1777618079 | 5.56° C | 82% | 1006.7 hPa | 0 mm | 1.34 m/s, 325° | - | - |
| 1777617779 | 5.56° C | 83% | 1006.7 hPa | 0 mm | 0.45 m/s, 322° | - | - |
| 1777617479 | 5.56° C | 83% | 1006.7 hPa | 0 mm | 0.89 m/s, 329° | - | - |
| 1777617179 | 5.56° C | 82% | 1006.7 hPa | 0 mm | 0.89 m/s, 335° | - | - |
| 1777616879 | 5.56° C | 82% | 1006.7 hPa | 0 mm | 1.34 m/s, 356° | - | - |
| 1777616578 | 5.56° C | 82% | 1006.7 hPa | 0 mm | 0.89 m/s, 353° | - | - |
| 1777616279 | 6.11° C | 82% | 1006.7 hPa | 0 mm | 0.89 m/s, 335° | - | - |
| 1777615979 | 6.11° C | 82% | 1006.7 hPa | 0 mm | 0.89 m/s, 350° | - | - |
| 1777615679 | 6.11° C | 83% | 1006.7 hPa | 0 mm | 1.34 m/s, 5° | - | - |
| 1777615379 | 6.11° C | 83% | 1006.7 hPa | 0 mm | 0.89 m/s, 354° | - | - |
| 1777615079 | 6.11° C | 83% | 1006.6 hPa | 0 mm | 0.89 m/s, 1° | - | - |
| 1777614779 | 6.11° C | 83% | 1006.6 hPa | 0 mm | 1.34 m/s, 338° | - | - |
| 1777614479 | 6.11° C | 84% | 1006.6 hPa | 0 mm | 0.89 m/s, 351° | - | - |
| 1777614179 | 6.11° C | 84% | 1006.6 hPa | 0 mm | 0.45 m/s, 345° | - | - |
| 1777613879 | 6.11° C | 84% | 1006.6 hPa | 0 mm | 1.79 m/s, 328° | - | - |
| 1777613578 | 6.11° C | 84% | 1006.6 hPa | 0 mm | 0.45 m/s, 325° | - | - |
* Rain latest hour (hover to see other rain measurements)
** Current wind speed in m/s (hover to see current wind gust speed)